Home > Weather > Las Palmas > Past weeks

Flag for Spain Weather for the Past 2 Weeks in Las Palmas, Canary Islands, Spain

Now
66 °F

Passing clouds.


Feels Like: 66 °F
Forecast: 64 / 69 °F
Wind: 15 mph from Northeast

Location: Las Palmas De Gran Canaria / Gando

Current Time: Feb 9, 2016 at 3:45:21 AM

Latest Report: Feb 9, 2016 at 3:00 AM


Visibility: N/A

Pressure: 30.42 "Hg

Humidity: 73%

Dew point: 57 °F

Location of Las PalmasLocation

Historic Weather in Las Palmas — Graph

°F

Las Palmas Temperature Yesterday

Maximum temperature yesterday: 72 °F (at 1:00 PM)
Minimum temperature yesterday: 64 °F (at 12:00 AM)
Average temperature yesterday: 67 °F

High & Low Weather Summary for the Past Weeks

 TemperatureHumidityPressure
High75 °F (Jan 26, 12:30 PM)88% (Feb 8, 12:00 AM)30.48 "Hg (Feb 8, 12:00 AM)
Low61 °F (Jan 27, 5:00 AM)32% (Jan 25, 2:00 AM)30.15 "Hg (Feb 5, 4:30 AM)
Average67 °F67%30.33 "Hg
* Reported Jan 25 2:00 AM — Feb 9 2:30 AM, Las Palmas, Weather by CustomWeather, © 2016

Note: Actual official high and low records may vary slightly from our data, if they occured in-between our weather recording intervals... More about our weather records

Advertising

Las Palmas Weather History for the Previous 24 Hours

 ConditionsComfort  
Time TempWeatherWind HumidityBarometerVisibility
2:30 AM
Tue, Feb 9
66 °FPassing clouds.14 mph73%30.42 "HgN/A
2:00 AM66 °FPassing clouds.15 mph73%30.45 "HgN/A
1:30 AM66 °FPassing clouds.16 mph73%30.45 "HgN/A
1:00 AM66 °FPassing clouds.16 mph73%30.45 "HgN/A
12:30 AM66 °FPassing clouds.15 mph73%30.45 "HgN/A
12:00 AM66 °FPassing clouds.14 mph78%30.45 "HgN/A
11:30 PM
Mon, Feb 8
66 °FPassing clouds.15 mph78%30.45 "HgN/A
11:00 PM66 °FPassing clouds.16 mph73%30.45 "HgN/A
10:00 PM66 °FPassing clouds.14 mph83%30.45 "HgN/A
9:30 PM66 °FPassing clouds.13 mph78%30.45 "HgN/A
9:00 PM66 °FPassing clouds.14 mph78%30.45 "HgN/A
8:30 PM66 °FPassing clouds.15 mph78%30.42 "HgN/A
8:00 PM66 °FPassing clouds.15 mph78%30.42 "HgN/A
7:30 PM66 °FPassing clouds.15 mph78%30.39 "HgN/A
7:00 PM66 °FPassing clouds.17 mph78%30.39 "HgN/A
6:30 PM68 °FPassing clouds.16 mph73%30.39 "HgN/A
6:00 PM68 °FPassing clouds.16 mph73%30.39 "HgN/A
5:30 PM68 °FPassing clouds.16 mph73%30.39 "HgN/A
5:00 PM70 °FPassing clouds.16 mph69%30.39 "HgN/A
4:30 PM70 °FPassing clouds.12 mph69%30.39 "HgN/A
4:00 PM70 °FPassing clouds.7 mph69%30.39 "HgN/A
3:30 PM70 °FPassing clouds.6 mph69%30.39 "HgN/A
3:00 PM70 °FPassing clouds.9 mph69%30.39 "HgN/A
2:30 PM72 °FPassing clouds.10 mph65%30.39 "HgN/A
2:00 PM70 °FPassing clouds.10 mph69%30.39 "HgN/A
1:30 PM70 °FPassing clouds.10 mph69%30.42 "HgN/A
1:00 PM72 °FPassing clouds.13 mph65%30.42 "HgN/A
12:30 PM70 °FPassing clouds.14 mph69%30.42 "HgN/A
12:00 PM70 °FPassing clouds.15 mph69%30.42 "HgN/A
11:30 AM68 °FPassing clouds.15 mph69%30.42 "HgN/A
11:00 AM68 °FPassing clouds.15 mph69%30.45 "HgN/A
10:30 AM68 °FPassing clouds.15 mph69%30.45 "HgN/A
10:00 AM66 °FPassing clouds.17 mph73%30.42 "HgN/A
9:30 AM66 °FScattered clouds.15 mph73%30.42 "HgN/A
9:00 AM66 °FPartly sunny.15 mph73%30.42 "HgN/A
8:30 AM66 °FScattered clouds.16 mph73%30.42 "HgN/A
8:00 AM64 °FScattered clouds.14 mph78%30.42 "HgN/A
7:30 AM64 °FPassing clouds.14 mph83%30.39 "HgN/A
7:00 AM64 °FPassing clouds.15 mph78%30.39 "HgN/A
6:30 AM64 °FPassing clouds.16 mph83%30.39 "HgN/A
6:00 AM64 °FPassing clouds.14 mph78%30.36 "HgN/A
5:30 AM64 °FPassing clouds.13 mph78%30.36 "HgN/A
5:00 AM64 °FPassing clouds.14 mph78%30.36 "HgN/A
4:30 AM64 °FPassing clouds.15 mph78%30.36 "HgN/A
3:30 AM64 °FPassing clouds.13 mph83%30.36 "HgN/A
3:00 AM64 °FPassing clouds.13 mph83%30.36 "HgN/A
Weather by CustomWeather, © 2016

See weather overviewHow to use our weather pages